CAPE
4 3 0 0 0 0 0 0 0 0 0 0 0 0 0 0 0 0 0 0 0 0 0 0 0 0 0 0 0 0 0 0 0 0 0 0 0 0 0 0 0 0 0 170 367 602 542
2 1 0 0 0 0 0 0 0 0 0 0 0 0 0 0 0 0 0 0 0 0 0 0 0 0 0 0 0 0 0 0 0 0 0 0 0 0 0 0 0 0 0 335 642 642 686
2 1 0 0 0 0 0 0 0 0 0 0 0 0 0 0 0 0 0 0 0 0 0 0 0 0 0 0 0 0 0 0 0 0 0 0 0 0 0 0 0 0 0 1 244 300 524
0 1 1 0 0 0 0 0 0 0 0 0 0 0 0 0 0 0 0 0 0 0 0 0 0 0 0 0 0 0 0 0 0 0 0 0 0 0 0 0 0 0 0 0 42 204 88
0 0 1 0 0 0 0 0 0 0 0 0 0 0 0 0 0 0 0 0 0 0 0 0 0 0 0 0 0 0 0 0 0 0 0 0 0 0 0 0 0 0 0 0 0 0 107
0 0 1 0 0 0 0 0 0 0 0 0 0 0 0 0 0 0 0 0 0 0 0 0 0 0 0 0 0 0 0 0 0 0 0 0 0 0 0 0 0 0 0 0 0 0 70
0 0 0 0 0 0 0 0 0 0 0 0 0 0 0 0 0 0 0 0 0 0 0 0 0 0 0 0 0 0 0 0 0 0 0 0 0 0 0 0 0 0 0 0 0 0 0
0 0 0 0 0 0 0 0 0 0 0 0 0 0 0 0 0 0 0 0 0 0 0 0 0 0 0 0 0 0 0 0 0 0 0 0 0 0 0 0 0 0 0 0 0 0 0
0 0 0 0 0 0 0 0 0 0 0 0 0 0 0 0 0 0 0 0 0 0 0 0 0 0 0 0 0 0 0 0 0 0 0 0 0 0 0 0 0 0 0 0 0 0 16
0 0 0 0 0 0 0 0 0 0 0 0 0 0 0 0 0 0 0 0 0 0 0 0 0 0 0 0 0 0 0 0 0 0 0 0 0 0 0 0 0 0 0 0 0 0 0
0 0 0 0 0 0 0 0 0 0 0 0 0 0 0 0 0 0 0 0 0 0 0 0 0 0 0 0 0 0 0 0 0 0 0 0 0 0 0 0 0 0 0 0 0 0 0
0 0 0 0 0 0 0 0 0 0 0 0 0 0 0 0 0 0 0 0 0 0 0 0 0 0 0 0 0 0 0 0 0 0 0 0 0 0 0 0 0 0 0 0 0 0 0
0 0 0 0 0 0 0 0 0 0 0 0 0 0 0 0 0 0 0 0 0 0 0 0 0 0 0 0 0 0 0 0 0 0 0 0 0 0 0 0 0 0 0 0 0 0 0
0 0 0 0 0 0 0 0 0 0 0 0 0 0 0 0 0 0 0 0 0 0 0 0 0 0 0 0 0 0 0 0 0 0 0 0 0 0 0 0 0 0 0 0 0 0 0
0 0 0 0 0 0 0 0 0 0 0 0 0 0 0 0 0 0 0 0 0 0 0 0 0 0 0 0 0 0 0 0 0 0 0 0 0 0 0 0 0 0 0 0 0 0 0
0 0 0 0 0 0 0 0 0 0 0 0 0 0 0 0 0 0 0 0 0 0 0 0 0 0 0 0 0 0 0 0 0 0 0 0 0 0 0 0 0 0 0 0 0 0 0
0 0 0 0 0 0 0 0 0 0 0 0 0 0 0 0 0 0 0 0 0 0 0 0 0 0 0 0 0 0 0 0 0 0 0 0 0 0 0 0 0 0 0 0 0 0 0
0 0 0 0 0 0 0 0 0 0 0 0 0 0 0 0 0 0 0 0 0 0 0 0 0 0 0 0 0 0 0 0 0 0 0 0 0 0 0 0 0 0 0 0 0 0 0
0 0 0 0 0 0 0 0 0 0 0 0 0 0 0 0 0 0 0 0 0 0 0 0 0 0 0 0 0 0 0 0 0 0 0 0 0 0 0 0 0 0 0 0 0 0 0
0 0 0 0 0 0 0 0 0 0 0 0 0 0 0 0 0 0 0 0 0 0 0 0 0 0 0 0 0 0 0 0 0 0 0 0 0 0 0 0 0 0 0 0 0 0 0
0 0 0 0 0 0 0 0 0 0 0 0 0 0 0 0 0 0 0 0 0 0 0 0 0 0 0 0 0 0 0 0 0 0 0 0 0 0 0 0 0 0 0 0 0 0 0
0 0 0 0 0 0 0 0 0 0 0 0 0 0 0 0 0 0 0 0 0 0 0 0 0 0 0 0 0 0 0 0 0 0 0 0 0 0 0 0 0 0 0 0 0 0 0
0 0 0 0 0 0 0 0 0 0 0 0 0 0 0 0 0 0 0 0 0 0 0 0 0 0 0 0 0 0 0 0 0 0 0 0 0 0 0 0 1 0 0 0 0 0 0
0 0 0 0 0 0 0 0 0 0 0 0 0 0 0 0 0 0 0 0 0 0 0 0 0 0 0 0 0 0 0 0 0 0 0 0 0 0 0 0 2 0 0 0 0 33 37
0 0 0 0 0 0 0 0 0 0 0 0 0 0 0 0 0 0 0 0 0 0 0 0 0 0 0 0 0 0 0 0 0 0 0 0 0 0 0 0 0 0 0 0 0 0 0
1 1 1 0 0 0 0 0 0 0 0 0 0 0 0 0 0 0 0 0 0 0 0 0 0 0 0 0 0 0 0 0 0 0 0 0 0 0 0 0 0 0 0 0 0 0 0
1 1 1 0 0 0 0 0 0 0 0 0 0 0 0 0 0 0 0 0 0 0 0 0 0 0 0 0 0 0 0 0 0 0 0 0 0 0 0 0 0 0 0 0 0 0 0
0 0 1 0 0 0 0 0 0 0 0 0 0 0 0 0 0 0 0 0 0 0 0 0 0 0 0 0 0 0 0 0 0 0 0 0 0 0 0 0 0 0 0 0 0 0 0
0 1 0 0 0 0 0 0 0 0 0 0 0 0 0 0 0 0 0 0 0 0 0 0 0 0 0 0 0 0 0 0 0 0 0 0 0 0 0 0 0 0 0 0 0 0 0
CIN
0 0 0 0 0 0 0 0 0 0 0 0 0 0 0 0 0 0 0 0 0 0 0 0 0 0 0 0 0 0 0 0 0 0 0 0 0 0 0 0 0 0 0 -32 -36 -54 -54
0 0 0 0 0 0 0 0 0 0 0 0 0 0 0 0 0 0 0 0 0 0 0 0 0 0 0 0 0 0 0 0 0 0 0 0 0 0 0 0 0 0 -14 -28 -38 -37 -32
0 0 0 0 0 0 0 0 0 0 0 0 0 0 0 0 0 0 0 0 0 0 0 0 0 0 0 0 0 0 0 0 0 0 0 0 0 0 0 0 0 0 0 -2 -52 -53 -39
0 0 0 0 0 0 0 0 0 0 0 0 0 0 0 0 0 0 0 0 0 0 0 0 0 0 0 0 0 0 0 0 0 0 0 0 0 0 0 0 0 0 0 0 -34 -58 -70
0 0 0 0 0 0 0 0 0 0 0 0 0 0 0 0 0 0 0 0 0 0 0 0 0 0 0 0 0 0 0 0 0 0 0 0 0 0 0 0 0 0 0 0 0 0 -81
0 0 0 0 0 0 0 0 0 0 0 0 0 0 0 0 0 0 0 0 0 0 0 0 0 0 0 0 0 0 0 0 0 0 0 0 0 0 0 0 0 0 0 0 0 0 -138
0 0 0 0 0 0 0 0 0 0 0 0 0 0 0 0 0 0 0 0 0 0 0 0 0 0 0 0 0 0 0 0 0 0 0 0 0 0 0 0 0 0 0 0 0 0 0
0 0 0 0 0 0 0 0 0 0 0 0 0 0 0 0 0 0 0 0 0 0 0 0 0 0 0 0 0 0 0 0 0 0 0 0 0 0 0 0 0 0 0 0 0 0 0
0 0 0 0 0 0 0 0 0 0 0 0 0 0 0 0 0 0 0 0 0 0 0 0 0 0 0 0 0 0 0 0 0 0 0 0 0 0 0 0 0 0 0 0 0 0 -92
0 0 0 0 0 0 0 0 0 0 0 0 0 0 0 0 0 0 0 0 0 0 0 0 0 0 0 0 0 0 0 0 0 0 0 0 0 0 0 0 0 0 0 0 0 0 0
0 0 0 0 0 0 0 0 0 0 0 0 0 0 0 0 0 0 0 0 0 0 0 0 0 0 0 0 0 0 0 0 0 0 0 0 0 0 0 0 0 0 0 0 0 0 0
0 0 0 0 0 0 0 0 0 0 0 0 0 0 0 0 0 0 0 0 0 0 0 0 0 0 0 0 0 0 0 0 0 0 0 0 0 0 0 0 0 0 0 0 0 0 0
0 0 0 0 0 0 0 0 0 0 0 0 0 0 0 0 0 0 0 0 0 0 0 0 0 0 0 0 0 0 0 0 0 0 0 0 0 0 0 0 0 0 0 0 0 0 0
0 0 0 0 0 0 0 0 0 0 0 0 0 0 0 0 0 0 0 0 0 0 0 0 0 0 0 0 0 0 0 0 0 0 0 0 0 0 0 0 0 0 0 0 0 0 0
0 0 0 0 0 0 0 0 0 0 0 0 0 0 0 0 0 0 0 0 0 0 0 0 0 0 0 0 0 0 0 0 0 0 0 0 0 0 0 0 0 0 0 0 0 0 0
0 0 0 0 0 0 0 0 0 0 0 0 0 0 0 0 0 0 0 0 0 0 0 0 0 0 0 0 0 0 0 0 0 0 0 0 0 0 0 0 0 0 0 0 0 0 0
0 0 0 0 0 0 0 0 0 0 0 0 0 0 0 0 0 0 0 0 0 0 0 0 0 0 0 0 0 0 0 0 0 0 0 0 0 0 0 0 0 0 0 0 0 0 0
0 0 0 0 0 0 0 0 0 0 0 0 0 0 0 0 0 0 0 0 0 0 0 0 0 0 0 0 0 0 0 0 0 0 0 0 0 0 0 0 0 0 0 0 0 0 0
0 0 0 0 0 0 0 0 0 0 0 0 0 0 0 0 0 0 0 0 0 0 0 0 0 0 0 0 0 0 0 0 0 0 0 0 0 0 0 0 0 0 0 0 0 0 0
0 0 0 0 0 0 0 0 0 0 0 0 0 0 0 0 0 0 0 0 0 0 0 0 0 0 0 0 0 0 0 0 0 0 0 0 0 0 0 0 0 0 0 0 0 0 0
0 0 0 0 0 0 0 0 0 0 0 0 0 0 0 0 0 0 0 0 0 0 0 0 0 0 0 0 0 0 0 0 0 0 0 0 0 0 0 0 0 0 0 0 0 0 0
0 0 0 0 0 0 0 0 0 0 0 0 0 0 0 0 0 0 0 0 0 0 0 0 0 0 0 0 0 0 0 0 0 0 0 0 0 0 0 0 0 0 0 0 0 0 0
0 0 0 0 0 0 0 0 0 0 0 0 0 0 0 0 0 0 0 0 0 0 0 0 0 0 0 0 0 0 0 0 0 0 0 0 0 0 0 0 -98 -3 0 0 0 0 0
0 0 0 0 0 0 0 0 0 0 0 0 0 0 0 0 0 0 0 0 0 0 0 0 0 0 0 0 0 0 0 0 0 0 0 0 0 0 0 0 -45 -5 0 0 0 -238 -250
0 0 0 0 0 0 0 0 0 0 0 0 0 0 0 0 0 0 0 0 0 0 0 0 0 0 0 0 0 0 0 0 0 0 0 0 0 0 0 0 0 0 0 0 0 0 0
0 0 0 0 0 0 0 0 0 0 0 0 0 0 0 0 0 0 0 0 0 0 0 0 0 0 0 0 0 0 0 0 0 0 0 0 0 0 0 0 0 0 0 0 0 0 0
0 -1 0 0 0 0 0 0 0 0 0 0 0 0 0 0 0 0 0 0 0 0 0 0 0 0 0 0 0 0 0 0 0 0 0 0 0 0 0 0 0 0 0 0 0 0 0
-4 0 0 0 0 0 0 0 0 0 0 0 0 0 0 0 0 0 0 0 0 0 0 0 0 0 0 0 0 0 0 0 0 0 0 0 0 0 0 0 0 0 0 0 0 0 0
0 0 0 0 0 0 0 0 0 0 0 0 0 0 0 0 0 0 0 0 0 0 0 0 0 0 0 0 0 0 0 0 0 0 0 0 0 0 0 0 0 0 0 0 0 0 0
Wind_Speed
16 16 16 16 16 16 16 16 17 18 19 20 20 20 21 21 21 20 20 20 20 20 20 20 20 19 16 16 19 15 14 18 20 18 20 17 15 14 12 10 11 18 6 14 14 14 13
17 17 17 17 17 16 16 16 16 17 18 19 20 20 20 21 21 21 20 20 20 20 20 19 18 17 16 17 18 17 12 16 17 18 18 16 13 13 9 8 10 12 10 12 13 14 13
17 18 18 18 17 17 17 17 16 17 17 18 19 20 20 20 20 20 20 20 19 19 19 19 18 17 18 21 13 14 12 16 14 16 19 13 12 11 14 8 13 11 10 12 11 13 13
18 18 18 19 19 19 19 19 19 19 19 20 20 21 21 21 21 21 21 20 20 20 19 19 18 16 20 18 18 7 11 13 9 12 13 10 10 9 10 3 6 14 16 15 11 11 10
18 19 19 20 21 21 22 22 22 22 22 22 22 22 23 23 23 23 22 22 20 19 17 14 14 16 20 19 11 12 9 10 9 7 6 8 9 11 15 15 17 15 17 16 16 9 11
19 20 20 21 21 22 24 24 25 25 25 25 24 24 24 24 24 23 23 21 16 15 14 15 19 19 19 13 10 6 4 6 10 7 8 8 11 12 13 9 12 15 19 20 17 20 12
20 21 22 23 23 24 24 26 27 27 27 27 27 27 27 26 25 24 21 16 18 19 17 10 13 15 17 17 13 6 4 4 10 10 7 12 13 4 10 7 4 24 23 21 19 18 16
22 23 24 25 25 26 27 27 28 28 29 29 29 29 28 28 26 24 19 16 17 18 26 15 8 18 22 17 16 11 3 4 7 5 10 16 7 15 5 1 12 26 26 23 22 21 7
24 24 25 26 27 28 29 29 30 30 30 30 30 30 29 28 26 18 15 16 17 23 21 23 14 13 11 7 10 7 3 3 7 3 6 8 4 12 9 1 15 26 28 25 22 25 8
25 25 26 28 29 31 32 32 33 33 33 32 32 31 30 28 18 15 16 17 24 12 21 18 16 16 7 10 16 6 1 3 13 6 5 10 8 15 15 20 12 30 26 27 27 26 23
26 27 28 30 31 33 34 35 36 36 35 34 34 32 30 24 18 14 15 22 14 15 18 15 14 12 8 8 14 11 1 5 7 8 9 11 14 12 17 23 15 29 29 30 28 24 24
27 29 30 31 33 34 34 36 36 37 37 37 35 33 28 18 14 14 22 19 13 16 16 15 12 12 11 10 15 13 5 8 13 11 18 22 21 20 22 30 23 27 27 21 20 22 29
29 30 31 33 33 34 35 36 36 36 37 37 34 31 20 12 13 15 19 14 15 14 16 16 16 11 10 9 13 13 5 1 8 13 20 25 35 33 14 29 20 16 17 22 23 23 11
30 31 32 33 33 34 35 36 36 37 36 36 34 26 9 8 11 17 12 12 15 14 17 21 21 12 10 11 11 12 6 2 4 13 17 18 19 14 14 11 26 22 18 21 22 19 18
30 31 32 33 33 33 35 36 37 37 37 36 30 21 17 16 14 14 10 12 14 15 19 21 18 10 7 16 11 9 5 5 3 4 8 13 18 19 16 15 11 17 20 20 20 22 25
30 30 31 31 32 33 35 36 37 37 37 33 24 19 15 12 10 10 12 15 14 13 23 22 17 13 12 16 14 13 9 15 11 4 8 19 23 20 20 16 18 14 10 18 19 22 24
29 30 31 31 32 33 35 35 36 36 36 30 20 16 15 11 11 13 12 11 16 17 25 20 25 20 16 16 14 18 18 20 18 20 5 15 17 15 23 17 16 12 15 17 15 16 19
29 29 29 30 31 33 33 34 35 34 34 25 19 15 14 11 14 15 14 16 23 27 22 18 16 11 13 14 19 20 17 18 23 21 19 15 19 27 18 21 22 14 14 15 17 18 18
27 28 28 29 29 31 33 33 34 33 30 24 19 16 14 15 16 17 21 23 18 18 22 19 20 18 15 14 20 16 17 21 24 22 22 18 20 24 34 28 19 18 17 16 16 17 19
27 27 28 28 29 31 32 32 32 32 30 20 18 15 16 13 15 19 23 20 23 20 15 18 21 19 22 21 22 22 26 23 27 24 23 17 21 20 22 23 21 20 16 16 16 19 20
27 28 29 29 30 31 31 31 32 32 28 19 19 17 16 17 18 22 20 21 23 23 20 23 20 23 24 26 26 25 26 29 28 24 24 22 27 27 27 23 21 22 20 16 19 19 21
28 28 29 30 30 30 30 30 31 30 25 19 19 20 21 20 21 22 22 24 25 24 22 24 26 25 23 25 24 29 28 26 25 28 27 26 28 29 30 26 26 27 25 22 21 22 24
29 29 29 30 29 28 29 29 29 30 26 20 20 19 18 20 21 20 22 25 26 26 21 24 26 25 27 27 27 29 28 28 28 28 29 27 28 31 34 31 32 35 30 29 27 25 27
30 30 30 30 28 28 28 28 29 29 28 21 21 20 20 19 20 20 22 24 25 26 24 25 28 28 29 35 28 29 33 36 33 33 29 30 30 28 34 32 38 27 29 22 20 24 23
30 29 29 28 26 27 27 27 28 28 29 21 21 21 21 21 20 21 24 22 25 27 26 26 27 30 35 28 30 32 33 33 33 31 30 29 31 32 34 34 33 29 23 25 28 25 24
28 27 26 25 23 25 26 27 28 29 29 21 21 21 20 22 19 20 24 23 25 27 27 24 28 30 28 25 26 31 33 30 29 30 24 23 25 28 30 36 43 36 27 24 23 31 28
26 25 24 22 22 24 25 26 27 28 29 24 20 22 19 21 18 20 22 23 22 23 26 26 30 27 26 26 27 27 28 27 30 30 29 28 26 28 29 33 32 28 29 27 36 37 26
24 22 21 20 20 22 23 25 26 28 29 26 19 22 21 19 18 15 17 20 19 19 22 25 26 21 23 23 24 24 25 25 26 25 25 24 27 26 26 28 31 25 23 26 24 21 25
22 21 18 18 19 20 22 23 25 27 28 26 19 21 20 15 15 16 9 6 8 6 18 19 19 19 18 21 21 21 22 21 22 26 22 24 22 26 24 26 23 23 23 23 23 25 28
Wind_Direction
337 332 330 327 323 318 312 306 304 303 302 298 293 290 287 284 280 274 270 269 266 264 264 266 270 271 267 259 207 223 249 125 133 131 146 135 128 117 109 193 254 56 192 158 153 122 125
337 334 331 328 323 319 314 307 302 300 298 297 293 288 285 283 280 276 271 268 264 261 258 255 254 256 261 252 222 209 55 93 124 140 141 133 93 80 133 120 182 74 122 73 87 110 96
335 333 331 327 323 319 314 310 305 301 297 295 292 288 284 278 274 271 267 263 257 250 244 240 242 259 258 189 279 270 61 119 125 136 149 124 111 43 16 163 72 79 82 115 119 99 82
334 330 329 327 324 321 318 314 310 306 302 299 295 291 287 282 277 272 266 261 256 247 241 242 248 286 239 255 266 354 87 321 82 121 128 112 88 34 31 158 131 27 20 262 109 119 82
331 328 327 326 325 323 321 317 313 309 305 301 298 294 290 286 282 277 269 265 258 251 277 297 304 295 256 277 289 126 74 7 18 71 43 75 34 358 342 336 233 353 233 233 243 148 138
327 326 325 324 323 322 322 320 317 314 310 305 300 297 293 288 284 280 272 267 307 321 313 309 290 292 277 321 340 9 65 38 359 8 332 353 344 338 333 351 135 304 286 266 238 287 170
323 325 325 324 323 321 319 319 319 316 313 309 304 301 298 293 290 290 294 316 305 303 306 349 326 315 302 308 330 359 21 59 329 328 308 316 314 143 157 134 87 248 256 249 249 245 205
321 322 322 322 321 320 319 318 316 315 312 309 306 303 300 298 296 295 309 317 318 316 284 223 196 244 285 310 314 323 41 341 326 325 317 299 241 189 348 88 215 241 251 244 256 267 106
320 319 318 320 320 320 319 318 316 315 312 308 306 304 301 298 293 324 324 320 329 308 317 304 322 316 307 327 323 318 129 315 313 314 310 308 336 335 333 114 216 231 247 242 246 281 21
316 315 316 319 321 322 321 320 317 315 312 309 308 305 304 301 329 332 329 333 301 351 316 321 323 320 324 324 312 323 169 310 307 299 311 310 265 201 312 285 320 257 244 247 264 286 261
314 315 318 321 322 322 322 322 320 317 313 309 308 306 308 321 324 330 336 308 349 335 310 331 338 346 342 336 331 316 197 305 313 309 303 313 303 308 302 203 323 245 253 264 265 303 297
316 318 321 323 322 321 320 321 318 316 313 310 308 305 311 336 327 316 282 300 342 317 312 331 342 345 341 312 323 332 295 299 311 307 294 286 290 295 291 269 290 237 285 300 305 312 284
318 321 325 325 321 320 320 319 315 314 311 308 303 295 326 356 323 318 296 324 315 313 323 335 328 342 346 341 297 323 333 282 310 307 294 289 235 259 297 267 296 313 306 296 298 302 290
322 324 324 323 319 318 319 318 315 314 311 308 302 298 8 26 341 311 331 314 301 312 312 295 302 325 335 333 313 315 329 16 286 305 310 305 301 292 286 289 270 291 299 294 299 311 315
328 328 325 322 317 316 318 318 318 317 315 311 302 316 319 315 145 324 332 310 300 291 301 284 297 347 355 324 318 331 330 340 340 174 334 324 300 292 292 299 304 298 295 300 300 304 303
335 325 321 318 315 317 318 319 318 318 316 311 302 300 316 4 72 345 311 303 305 329 303 303 309 326 322 319 321 325 309 317 323 241 263 304 302 296 291 307 304 287 320 307 298 299 301
331 324 322 320 317 318 320 319 319 318 317 310 320 307 312 37 357 320 325 325 315 322 300 310 285 297 314 321 324 315 311 303 311 310 274 290 294 281 296 302 304 305 296 312 319 302 302
326 321 319 318 317 319 318 318 319 319 319 329 314 309 329 338 326 323 326 323 306 286 305 321 324 317 314 318 310 306 307 310 312 309 309 305 289 280 286 295 299 298 292 294 299 307 300
317 316 315 314 314 316 318 318 319 319 319 319 310 319 324 309 314 319 306 306 321 323 316 318 317 323 326 322 313 313 310 311 313 314 306 307 299 284 280 284 299 295 296 297 295 301 297
313 314 313 312 313 317 319 319 319 320 320 348 322 319 314 316 325 318 312 321 314 324 335 330 323 321 314 312 315 307 303 305 307 314 311 306 296 292 284 282 289 283 285 291 294 290 290
311 314 316 317 317 320 322 323 324 325 322 347 323 318 324 318 311 316 327 327 322 320 329 327 322 323 313 305 306 306 308 304 300 302 307 304 289 291 290 292 284 278 283 285 286 291 290
309 312 315 317 318 321 325 328 329 329 327 351 330 319 317 317 317 317 319 320 319 319 321 316 314 315 317 311 309 303 306 306 302 296 298 300 288 292 284 288 283 279 279 282 284 284 286
309 312 315 318 322 324 327 330 333 336 342 352 347 346 340 326 324 323 321 317 316 316 315 324 318 315 312 311 310 305 301 298 296 296 296 294 290 290 279 286 283 276 279 276 281 283 280
306 311 317 322 327 329 332 334 336 339 347 4 357 352 342 335 335 333 327 325 322 322 316 317 319 315 313 311 309 306 300 291 289 287 286 287 288 287 282 284 273 281 292 288 283 286 287
304 309 318 327 335 333 332 332 335 338 340 4 3 354 347 338 337 334 331 330 326 323 320 317 317 317 311 312 307 305 305 301 293 290 289 279 278 279 277 276 280 282 287 287 286 284 292
309 313 323 331 338 334 336 339 342 341 342 4 4 3 356 344 345 344 335 334 330 327 324 323 322 319 322 314 311 304 301 304 301 299 301 298 287 275 276 274 273 277 277 295 294 277 288
313 316 327 336 338 343 347 346 345 344 344 360 6 2 2 351 355 352 342 338 339 336 328 327 326 322 326 314 307 305 303 307 298 298 296 294 291 283 280 276 281 291 288 287 273 275 292
321 325 332 342 351 352 355 352 352 350 348 359 7 4 3 358 354 4 359 348 347 349 342 336 333 334 329 322 316 312 309 308 302 302 300 300 292 289 289 281 278 301 299 286 293 297 294
321 327 345 357 357 360 359 357 357 355 353 359 11 5 6 11 6 1 8 30 20 5 351 356 349 340 340 333 330 324 317 319 309 294 305 294 307 295 294 292 302 305 305 306 303 297 297